Flag for Nigeria Weather past 2 weeks in Lagos, Nigeria

Now
79 °F

Scattered clouds.


Feels Like: 83 °F
Forecast: 78 / 95 °F
Wind: 3 mph from Southwest

Location: Lagos / Ikeja


UV Index: 10 (Very high)

Visibility: 5 mi


Pressure: 29.83 "Hg

Humidity: 94%

Dew point: 77 °F

Location of LagosLocation

Historic Weather in Lagos

°F

Lagos temperature yesterday

Maximum temperature yesterday: 91 °F (at 1:00 PM)
Minimum temperature yesterday: 77 °F (at 6:00 AM)
Average temperature yesterday: 84 °F

Past Weeks' High & Low Weather Summary

 TemperatureHumidityPressure
High93 °F (Apr 2, 2:00 PM)100% (Apr 4, 7:00 AM)29.95 "Hg (Apr 4, 7:00 AM)
Low72 °F (Apr 13, 9:00 AM)49% (Apr 10, 3:00 PM)29.77 "Hg (Apr 2, 5:00 PM)
Average83 °F82%29.87 "Hg
* Reported Apr 2 6:00 AM — Apr 17 6:00 AM, Lagos, Weather by CustomWeather, © 2014

Note: Actual official high and low records may vary slightly from our data, if they occured in-between our weather recording intervals... More about our weather records

Advertising

Historic Weather Conditions — Data for Previous 24 hours

 ConditionsComfort  
Time TempWeatherWind HumidityBarometerVisibility
6:00 AM
Apr 17
79 °FPassing clouds.2 mph94%29.83 "HgN/A
5:00 AM79 °FPassing clouds.2 mph94%29.80 "HgN/A
4:00 AM79 °FPassing clouds.3 mph94%29.80 "HgN/A
3:00 AM81 °FPassing clouds.2 mph89%29.80 "HgN/A
2:00 AM81 °FPassing clouds.2 mph89%29.83 "HgN/A
1:00 AM81 °FPassing clouds.3 mph89%29.86 "HgN/A
12:00 AM82 °FPassing clouds.3 mph84%29.86 "HgN/A
11:00 PM
Apr 16
82 °FPassing clouds.3 mph84%29.86 "HgN/A
10:00 PM82 °FPassing clouds.3 mph84%29.86 "HgN/A
9:00 PM82 °FPassing clouds.3 mph84%29.83 "HgN/A
8:00 PM82 °FPassing clouds.6 mph84%29.80 "HgN/A
7:00 PM84 °FPassing clouds.8 mph74%29.80 "HgN/A
6:00 PM86 °FPassing clouds.15 mph75%29.80 "HgN/A
5:00 PM90 °FScattered clouds.16 mph67%29.80 "HgN/A
4:00 PM90 °FScattered clouds.16 mph63%29.80 "HgN/A
3:00 PM91 °FScattered clouds.14 mph59%29.80 "HgN/A
1:00 PM91 °FScattered clouds.14 mph63%29.86 "HgN/A
12:00 PM90 °FScattered clouds.12 mph71%29.89 "HgN/A
11:00 AM90 °FScattered clouds.9 mph67%29.92 "HgN/A
10:00 AM88 °FScattered clouds.9 mph75%29.92 "HgN/A
9:00 AM86 °FPassing clouds.14 mph79%29.89 "HgN/A
8:00 AM81 °FPassing clouds.2 mph94%29.89 "HgN/A
Weather by CustomWeather, © 2014

See weather overview